DELTA 1 R/B(2) *, 11792

Orbit data source: Space-Track

DELTA 1 R/B(2) *, 11792 is space debris in HEO originally from a launch on Wed, 26 Oct 1966 UTC launched from the Air Force Eastern Test Range (AFETR). Debris objects in space refer to the collection of defunct objects orbiting the Earth. Examples of debris include non-operational satellites, rocket bodies, and fragments generated from explosions, collisions, or faulty payload assembly.

Loading next visibility...
Identifier
11792, 1966-096C
Orbit
HEO
Country
Flag of USUS
Related business
Manufacturer
Unknown
Mission
Spacecraft
Bus & Motor
Unknown
Mass
Unknown
Launch date (UTC)
1966-10-26 (60 years ago)
Launch vehicle
Unknown
Launch site
Air Force Eastern Test Range (AFETR)
Object type
Payload
Rocket body
Debris
Shape & HBR
Unknown shape, 1.1 m
Radar Cross Section
Medium (>0.1 m² and <1 m²)

Expand to show TLE details & history
Last TLE update: 5 days ago

TLE from 5 days ago
0 DELTA 1 R/B(2) *
1 11792U 66096C   26249.41834532  .00000806  00000-0  10631-2 0  9997
2 11792  17.8048 358.8809 6052548  25.3055 354.8448  3.84771769434516
Epoch: 2026-09-06T10:02Z
TLE epoch observation values (Epoch: 2026-09-06T10:02:25.035Z)
Latitude
-0.00007°
Longitude
-137.23496°
Altitude
665.034 km
Speed
9.487 km/s
True Right ascension
23h 55m 31s
True Declination
0° 00' 00"
Sunlit
Object was in full shadow at epoch
Visualization orbit readout
Latitude
Unknown
Longitude
Unknown
Altitude
Unknown
Speed
Unknown
Apparent Right ascension
Unknown
Apparent Declination
Unknown
Sunlit
N/A
Visualization observer readout
Local Sidereal Time
07:29:19
Azimuth
Unknown
Elevation
Unknown
Doppler factor
Unknown
Orbital elements
Apogee altitude
21,243.799 km
Perigee altitude
414.322 km
Semi-major axis
17,207.197 km
Eccentricity
0.60525
Inclination
17.8048°
RAAN
358.8809°
Arg. of periapsis
25.3055°
True anomaly
334.32807°
Mean anomaly
354.8448°
Eccentric anomaly
347.10686°
Mean motion
0.96156 °/min
Orbital period
374.39 mins
BSTAR
0.0010631
Loading maneuver chart data...
Computing Atmospheric mass density...
Loading historical data...
Loading historical data...
Loading historical data...
Loading historical data...
Loading historical data...
Loading historical data...
Loading historical data...
Other satellites on launch #96 in the year 1966 (1966-10-26 UTC)

Documentation

Showing up to 5 results
|